contact:dominique.lefevre@mio.osupytheas.fr, maurice.libes@osupytheas.fr, didier.mallarino@osupytheas.fr
Project:EMSO http://www.emso-fr.org/EMSO-France
Depth: 2436.0 m
Title:EMSO Ligure Ouest : Data MII capteur AQUADOPP
Date,Latitude,Longitude,X_East,Y_North,Z_Up,Amplitude_X,Amplitude_Y,Amplitude_Z,Batterie,SoundSpeed,Heading,Pitch,Roll,Pressure,TIS,Speed,Direction
, degrees North, degrees East, m.s-1, m.s-1,m.s-1, 1, 1, 1, Volt, m.s-1, degree, degree, degree, dbar, degree_C, m.s-1, degree
2022-10-10T00:04:03,42.805,6.029,0.004,-0.01,-0.003,100.0,102.0,99.0,13.4,1505.2,322.9,-0.7,1.8,2471.013,13.28,0.01,158.2
2022-10-10T00:07:03,42.805,6.029,0.013,-0.027,-0.019,100.0,100.0,100.0,13.3,1505.2,322.8,-0.7,1.8,2471.02,13.29,0.029,154.3
2022-10-10T00:10:03,42.805,6.029,0.011,-0.022,0.001,102.0,101.0,99.0,13.4,1505.2,329.3,-0.8,1.8,2470.953,13.29,0.024,153.4
2022-10-10T00:13:03,42.805,6.029,-0.013,-0.012,-0.006,101.0,101.0,100.0,13.4,1505.2,322.1,-0.8,1.8,2470.966,13.29,0.017,227.3
2022-10-10T00:16:03,42.805,6.029,-0.016,-0.025,-0.016,99.0,100.0,100.0,13.4,1505.2,324.3,-0.8,1.8,2470.992,13.29,0.029,212.6
2022-10-10T00:19:03,42.805,6.029,-0.021,-0.017,-0.007,100.0,100.0,100.0,13.3,1505.2,333.7,-0.8,1.8,2470.929,13.29,0.027,231.0
2022-10-10T00:22:03,42.805,6.029,-0.005,-0.02,-0.008,100.0,101.0,100.0,13.4,1505.2,326.5,-0.8,1.8,2470.973,13.29,0.02,194.0
2022-10-10T00:25:03,42.805,6.029,0.009,-0.018,0.011,100.0,101.0,100.0,13.3,1505.2,329.4,-0.7,1.8,2470.918,13.29,0.02,153.4
2022-10-10T00:28:03,42.805,6.029,0.009,-0.033,-0.013,101.0,100.0,100.0,13.4,1505.2,322.8,-0.7,1.8,2470.954,13.29,0.034,164.7
2022-10-10T00:31:03,42.805,6.029,-0.017,-0.004,0.011,101.0,101.0,99.0,13.3,1505.2,324.5,-0.8,1.8,2470.933,13.29,0.017,256.8
2022-10-10T00:34:03,42.805,6.029,-0.001,-0.025,0.002,100.0,98.0,101.0,13.4,1505.2,332.1,-0.8,1.8,2470.946,13.29,0.025,182.3
2022-10-10T00:37:03,42.805,6.029,0.018,-0.018,-0.02,101.0,100.0,100.0,13.3,1505.2,334.6,-0.8,1.8,2470.931,13.29,0.025,135.0
2022-10-10T00:40:03,42.805,6.029,0.002,-0.007,0.024,98.0,101.0,100.0,13.4,1505.2,332.8,-0.7,1.8,2470.922,13.29,0.007,164.1
2022-10-10T00:43:03,42.805,6.029,-0.019,-0.004,0.001,100.0,101.0,99.0,13.3,1505.2,330.8,-0.8,1.8,2470.951,13.29,0.019,258.1
2022-10-10T00:46:03,42.805,6.029,0.009,-0.02,0.01,100.0,100.0,100.0,13.4,1505.2,318.7,-0.8,1.9,2470.925,13.29,0.021,155.8
2022-10-10T00:49:03,42.805,6.029,0.015,-0.043,-0.023,99.0,102.0,101.0,13.4,1505.2,329.1,-0.8,1.8,2470.901,13.29,0.045,160.8
2022-10-10T00:52:03,42.805,6.029,-0.021,-0.016,-0.013,99.0,102.0,100.0,13.3,1505.2,323.9,-0.7,1.8,2470.911,13.29,0.026,232.7
2022-10-10T00:55:03,42.805,6.029,0.001,0.001,0.016,100.0,99.0,99.0,13.3,1505.2,320.9,-0.8,1.8,2470.93,13.29,0.001,45.0
2022-10-10T00:58:03,42.805,6.029,-0.002,-0.026,-0.003,100.0,100.0,100.0,13.4,1505.2,327.0,-0.8,1.8,2470.897,13.29,0.026,184.4
2022-10-10T01:04:03,42.805,6.029,-0.032,-0.018,-0.031,102.0,104.0,100.0,13.4,1505.2,327.1,-0.8,1.8,2470.995,13.28,0.036,240.6
2022-10-10T01:07:03,42.805,6.029,0.025,-0.004,0.05,101.0,104.0,101.0,13.4,1505.2,322.7,-0.8,1.8,2470.927,13.28,0.025,99.1
2022-10-10T01:10:03,42.805,6.029,0.002,-0.027,-0.023,99.0,101.0,100.0,13.3,1505.2,327.4,-0.7,1.8,2470.947,13.28,0.027,175.8
2022-10-10T01:13:03,42.805,6.029,0.006,-0.006,-0.006,100.0,101.0,100.0,13.4,1505.2,326.6,-0.8,1.8,2470.925,13.29,0.008,135.0
2022-10-10T01:16:03,42.805,6.029,-0.027,-0.011,-0.039,102.0,101.0,99.0,13.3,1505.2,319.4,-0.7,1.8,2470.935,13.29,0.029,247.8
2022-10-10T01:19:03,42.805,6.029,0.011,-0.003,0.035,100.0,100.0,100.0,13.4,1505.2,326.3,-0.8,1.8,2470.911,13.29,0.011,105.3
2022-10-10T01:22:03,42.805,6.029,0.008,-0.052,0.005,100.0,101.0,100.0,13.3,1505.2,334.0,-0.8,1.8,2470.901,13.29,0.052,171.3
2022-10-10T01:25:03,42.805,6.029,0.011,-0.023,-0.01,100.0,100.0,99.0,13.4,1505.2,322.1,-0.7,1.8,2470.909,13.29,0.025,154.4
2022-10-10T01:28:03,42.805,6.029,0.017,-0.023,-0.011,100.0,101.0,99.0,13.4,1505.2,329.0,-0.7,1.8,2470.905,13.29,0.028,143.5
2022-10-10T01:31:03,42.805,6.029,0.017,-0.013,-0.001,101.0,101.0,101.0,13.4,1505.2,319.5,-0.8,1.8,2470.909,13.29,0.021,127.4
2022-10-10T01:34:03,42.805,6.029,0.025,-0.014,-0.001,100.0,101.0,99.0,13.3,1505.2,332.8,-0.8,1.8,2470.904,13.29,0.028,119.3
2022-10-10T01:37:03,42.805,6.029,0.029,-0.021,-0.012,101.0,101.0,100.0,13.4,1505.2,328.0,-0.8,1.8,2470.911,13.29,0.035,125.9
2022-10-10T01:40:03,42.805,6.029,0.007,-0.015,0.029,100.0,100.0,99.0,13.3,1505.2,322.2,-0.8,1.8,2470.908,13.29,0.016,155.0
2022-10-10T01:43:03,42.805,6.029,0.012,-0.025,-0.02,102.0,101.0,100.0,13.4,1505.2,323.2,-0.8,1.8,2470.861,13.29,0.027,154.4
2022-10-10T01:46:03,42.805,6.029,0.03,-0.024,0.012,100.0,100.0,100.0,13.3,1505.2,327.4,-0.8,1.8,2470.878,13.29,0.038,128.7
2022-10-10T01:49:03,42.805,6.029,0.01,0.0,0.003,99.0,101.0,100.0,13.4,1505.2,328.0,-0.7,1.8,2470.916,13.29,0.01,90.0
2022-10-10T01:52:03,42.805,6.029,0.019,-0.024,0.002,101.0,101.0,99.0,13.3,1505.2,321.4,-0.8,1.8,2470.876,13.29,0.03,141.6
2022-10-10T01:55:03,42.805,6.029,-0.008,-0.005,-0.006,100.0,101.0,100.0,13.4,1505.2,319.5,-0.8,1.9,2470.919,13.29,0.009,238.0
2022-10-10T01:58:03,42.805,6.029,0.025,-0.008,0.025,101.0,102.0,99.0,13.3,1505.2,326.6,-0.8,1.8,2470.93,13.29,0.026,107.7
2022-10-10T02:04:03,42.805,6.029,0.012,-0.002,0.029,101.0,99.0,99.0,13.3,1505.2,320.8,-0.8,1.8,2470.938,13.28,0.012,99.5
2022-10-10T02:07:03,42.805,6.029,-0.015,-0.008,-0.019,100.0,100.0,99.0,13.4,1505.2,329.0,-0.7,1.8,2470.929,13.28,0.017,241.9
2022-10-10T02:10:03,42.805,6.029,0.008,-0.013,-0.006,100.0,101.0,100.0,13.3,1505.2,325.7,-0.8,1.8,2470.936,13.28,0.015,148.4
2022-10-10T02:13:03,42.805,6.029,0.005,-0.044,-0.025,101.0,101.0,99.0,13.4,1505.2,320.3,-0.8,1.8,2470.976,13.28,0.044,173.5
2022-10-10T02:16:03,42.805,6.029,0.011,-0.029,-0.001,100.0,101.0,99.0,13.3,1505.2,327.4,-0.7,1.8,2470.906,13.29,0.031,159.2
2022-10-10T02:19:03,42.805,6.029,0.005,-0.046,-0.064,101.0,98.0,101.0,13.4,1505.2,319.4,-0.7,1.8,2470.875,13.29,0.046,173.8
2022-10-10T02:22:03,42.805,6.029,-0.005,-0.009,-0.001,101.0,101.0,100.0,13.4,1505.2,319.8,-0.8,1.8,2470.909,13.29,0.01,209.1
2022-10-10T02:25:03,42.805,6.029,0.006,-0.001,-0.001,100.0,102.0,99.0,13.4,1505.2,328.1,-0.8,1.8,2470.87,13.29,0.006,99.5
2022-10-10T02:28:03,42.805,6.029,-0.008,-0.023,-0.007,99.0,101.0,100.0,13.4,1505.2,317.0,-0.8,1.8,2470.921,13.29,0.024,199.2
2022-10-10T02:31:03,42.805,6.029,-0.005,-0.012,-0.013,101.0,101.0,100.0,13.3,1505.2,332.4,-0.8,1.9,2470.916,13.29,0.013,202.6
2022-10-10T02:34:03,42.805,6.029,0.01,-0.018,0.001,100.0,99.0,99.0,13.3,1505.2,326.7,-0.7,1.8,2470.901,13.29,0.02,150.9
2022-10-10T02:37:03,42.805,6.029,0.01,-0.018,-0.011,100.0,101.0,100.0,13.3,1505.2,328.1,-0.8,1.8,2470.888,13.29,0.02,150.9
2022-10-10T02:40:03,42.805,6.029,0.01,-0.013,-0.006,101.0,101.0,99.0,13.4,1505.2,332.8,-0.8,1.8,2470.9,13.29,0.016,142.4
2022-10-10T02:43:03,42.805,6.029,0.022,-0.022,0.014,102.0,102.0,98.0,13.4,1505.2,325.4,-0.8,1.8,2470.912,13.29,0.031,135.0
2022-10-10T02:46:03,42.805,6.029,-0.026,-0.007,0.011,101.0,101.0,99.0,13.3,1505.2,324.6,-0.8,1.8,2470.906,13.29,0.026,254.9
2022-10-10T02:49:03,42.805,6.029,0.02,-0.014,-0.009,100.0,100.0,100.0,13.4,1505.2,322.1,-0.8,1.8,2470.912,13.29,0.024,125.0
2022-10-10T02:52:03,42.805,6.029,-0.007,-0.013,0.031,103.0,102.0,100.0,13.4,1505.2,327.4,-0.7,1.8,2470.896,13.29,0.014,208.3
2022-10-10T02:55:03,42.805,6.029,0.014,-0.013,0.001,102.0,100.0,100.0,13.4,1505.2,318.2,-0.7,1.8,2470.91,13.29,0.019,132.9
2022-10-10T02:58:03,42.805,6.029,0.012,-0.017,-0.023,100.0,101.0,100.0,13.4,1505.2,331.1,-0.8,1.9,2470.953,13.29,0.02,144.8
2022-10-10T03:04:03,42.805,6.029,0.003,-0.01,0.0,101.0,101.0,100.0,13.4,1505.2,318.9,-0.8,1.8,2470.99,13.28,0.01,163.3
2022-10-10T03:07:03,42.805,6.029,0.0,-0.039,-0.041,99.0,101.0,100.0,13.4,1505.2,330.5,-0.7,1.8,2470.964,13.28,0.039,180.0
2022-10-10T03:10:03,42.805,6.029,-0.005,-0.008,0.0,100.0,101.0,99.0,13.3,1505.2,327.0,-0.8,1.8,2470.95,13.28,0.009,212.0
2022-10-10T03:13:03,42.805,6.029,0.016,-0.019,0.007,99.0,99.0,100.0,13.4,1505.2,322.0,-0.7,1.8,2470.956,13.29,0.024,139.9
2022-10-10T03:16:03,42.805,6.029,-0.011,-0.005,0.002,102.0,100.0,100.0,13.3,1505.2,327.0,-0.8,1.8,2470.948,13.29,0.012,245.6
2022-10-10T03:19:03,42.805,6.029,-0.01,-0.01,-0.004,101.0,101.0,100.0,13.3,1505.2,319.8,-0.7,1.8,2470.944,13.29,0.014,225.0
2022-10-10T03:22:03,42.805,6.029,0.012,-0.031,-0.007,101.0,101.0,99.0,13.4,1505.2,327.0,-0.8,1.8,2470.952,13.29,0.033,158.8
2022-10-10T03:25:03,42.805,6.029,0.003,-0.026,0.0,100.0,100.0,100.0,13.4,1505.2,320.6,-0.8,1.8,2470.984,13.29,0.026,173.4
2022-10-10T03:28:03,42.805,6.029,0.004,-0.015,-0.028,102.0,100.0,100.0,13.4,1505.2,318.3,-0.8,1.8,2470.938,13.29,0.015,165.1
2022-10-10T03:31:03,42.805,6.029,-0.018,-0.028,-0.004,101.0,101.0,99.0,13.4,1505.2,322.1,-0.7,1.8,2470.933,13.29,0.033,212.7
2022-10-10T03:34:03,42.805,6.029,0.007,0.001,0.022,98.0,104.0,101.0,13.4,1505.2,317.1,-0.8,1.8,2470.939,13.29,0.007,81.9
2022-10-10T03:37:03,42.805,6.029,0.01,-0.019,0.03,101.0,101.0,99.0,13.3,1505.2,331.5,-0.8,1.8,2470.9,13.29,0.021,152.2
2022-10-10T03:40:03,42.805,6.029,-0.008,0.0,0.013,101.0,99.0,101.0,13.4,1505.2,326.3,-0.8,1.8,2470.95,13.29,0.008,270.0
2022-10-10T03:43:03,42.805,6.029,-0.007,-0.017,0.0,101.0,100.0,100.0,13.3,1505.2,332.4,-0.8,1.8,2470.98,13.29,0.018,202.4
2022-10-10T03:46:03,42.805,6.029,-0.004,-0.021,-0.027,101.0,99.0,100.0,13.3,1505.2,320.7,-0.7,1.8,2470.962,13.29,0.021,190.8
2022-10-10T03:49:03,42.805,6.029,0.0,-0.035,-0.042,100.0,101.0,99.0,13.3,1505.2,332.8,-0.7,1.8,2470.985,13.29,0.035,180.0
2022-10-10T03:52:03,42.805,6.029,0.007,-0.019,-0.011,101.0,100.0,99.0,13.4,1505.2,330.8,-0.8,1.8,2470.929,13.29,0.02,159.8
2022-10-10T03:55:03,42.805,6.029,0.018,-0.012,-0.026,98.0,102.0,100.0,13.4,1505.2,323.3,-0.8,1.8,2471.006,13.29,0.021,123.7
2022-10-10T03:58:03,42.805,6.029,-0.006,-0.018,-0.03,101.0,100.0,101.0,13.4,1505.2,325.6,-0.8,1.8,2470.965,13.29,0.018,198.4
2022-10-10T04:04:03,42.805,6.029,-0.003,-0.014,-0.014,100.0,101.0,101.0,13.3,1505.2,323.0,-0.8,1.8,2470.998,13.28,0.014,192.1
2022-10-10T04:07:03,42.805,6.029,0.002,-0.022,-0.002,99.0,102.0,99.0,13.4,1505.2,324.7,-0.8,1.8,2471.024,13.28,0.022,174.8
2022-10-10T04:10:03,42.805,6.029,0.006,-0.019,-0.027,100.0,101.0,100.0,13.4,1505.2,323.2,-0.7,1.8,2471.031,13.28,0.019,162.5
2022-10-10T04:13:03,42.805,6.029,-0.01,-0.011,-0.021,101.0,101.0,100.0,13.3,1505.2,322.1,-0.7,1.8,2471.003,13.29,0.014,222.3
2022-10-10T04:16:03,42.805,6.029,0.003,-0.003,-0.002,100.0,101.0,100.0,13.4,1505.2,323.5,-0.7,1.8,2471.001,13.29,0.004,135.0
2022-10-10T04:19:03,42.805,6.029,-0.031,-0.032,-0.047,102.0,101.0,99.0,13.3,1505.2,332.8,-0.8,1.8,2471.013,13.29,0.044,224.1
2022-10-10T04:22:03,42.805,6.029,-0.023,-0.023,-0.032,99.0,100.0,101.0,13.4,1505.2,329.7,-0.7,1.9,2470.976,13.29,0.032,225.0
2022-10-10T04:25:03,42.805,6.029,-0.007,-0.028,-0.003,102.0,102.0,99.0,13.4,1505.2,333.4,-0.8,1.8,2471.026,13.29,0.028,194.0
2022-10-10T04:28:03,42.805,6.029,-0.001,0.007,0.009,100.0,101.0,100.0,13.3,1505.2,318.7,-0.7,1.8,2470.995,13.29,0.007,351.9
2022-10-10T04:31:03,42.805,6.029,0.015,-0.003,0.012,99.0,103.0,101.0,13.4,1505.2,320.7,-0.7,1.8,2471.012,13.29,0.015,101.3
2022-10-10T04:34:03,42.805,6.029,0.033,0.0,0.006,99.0,102.0,101.0,13.3,1505.2,319.5,-0.7,1.8,2471.04,13.29,0.033,90.0
2022-10-10T04:37:03,42.805,6.029,0.005,-0.025,0.005,101.0,101.0,100.0,13.4,1505.2,321.4,-0.8,1.8,2471.015,13.29,0.025,168.7
2022-10-10T04:40:03,42.805,6.029,-0.008,-0.028,-0.012,100.0,101.0,100.0,13.3,1505.2,322.0,-0.7,1.8,2471.044,13.29,0.029,195.9
2022-10-10T04:43:03,42.805,6.029,0.005,-0.046,-0.035,101.0,101.0,100.0,13.4,1505.2,333.4,-0.8,1.8,2471.0,13.29,0.046,173.8
2022-10-10T04:46:03,42.805,6.029,0.01,-0.001,-0.021,101.0,102.0,100.0,13.4,1505.2,317.9,-0.8,1.8,2471.004,13.29,0.01,95.7
2022-10-10T04:49:03,42.805,6.029,0.004,-0.023,-0.026,102.0,101.0,99.0,13.4,1505.2,323.4,-0.8,1.8,2471.071,13.29,0.023,170.1
2022-10-10T04:52:03,42.805,6.029,0.022,-0.039,-0.032,101.0,101.0,100.0,13.4,1505.2,334.6,-0.8,1.9,2471.002,13.29,0.044,150.6
2022-10-10T04:55:03,42.805,6.029,0.014,-0.022,0.005,101.0,101.0,100.0,13.3,1505.2,332.1,-0.8,1.9,2471.039,13.29,0.026,147.5
2022-10-10T04:58:03,42.805,6.029,0.031,-0.034,-0.017,101.0,100.0,99.0,13.4,1505.2,330.1,-0.7,1.8,2471.038,13.29,0.046,137.6
2022-10-10T05:04:03,42.805,6.029,0.009,-0.02,-0.012,101.0,101.0,100.0,13.4,1505.2,319.0,-0.8,1.8,2471.058,13.28,0.021,155.8
2022-10-10T05:07:03,42.805,6.029,-0.008,-0.014,-0.04,101.0,100.0,100.0,13.4,1505.2,330.1,-0.7,1.9,2471.075,13.28,0.016,209.7
2022-10-10T05:10:03,42.805,6.029,0.049,-0.021,0.001,100.0,101.0,100.0,13.3,1505.2,321.3,-0.7,1.8,2471.075,13.28,0.053,113.2
2022-10-10T05:13:03,42.805,6.029,0.027,-0.018,-0.004,101.0,100.0,99.0,13.4,1505.2,320.2,-0.8,1.8,2471.089,13.28,0.032,123.7
2022-10-10T05:16:03,42.805,6.029,0.013,-0.037,0.005,101.0,101.0,100.0,13.4,1505.2,327.8,-0.8,1.8,2471.086,13.29,0.039,160.6
2022-10-10T05:19:03,42.805,6.029,0.003,-0.017,0.002,101.0,101.0,99.0,13.3,1505.2,330.0,-0.8,1.8,2471.073,13.29,0.017,170.0
2022-10-10T05:22:03,42.805,6.029,0.008,-0.015,0.017,101.0,101.0,100.0,13.4,1505.2,318.5,-0.8,1.9,2471.029,13.29,0.017,151.9
2022-10-10T05:25:03,42.805,6.029,0.004,-0.025,0.024,100.0,101.0,99.0,13.4,1505.2,328.0,-0.8,1.8,2471.049,13.29,0.025,170.9
2022-10-10T05:28:03,42.805,6.029,-0.002,-0.013,0.015,101.0,101.0,100.0,13.3,1505.2,322.3,-0.8,1.8,2471.098,13.29,0.013,188.7
2022-10-10T05:31:03,42.805,6.029,0.004,-0.047,-0.036,100.0,101.0,100.0,13.4,1505.2,328.4,-0.8,1.8,2471.062,13.29,0.047,175.1
2022-10-10T05:34:03,42.805,6.029,0.021,-0.021,-0.003,99.0,102.0,100.0,13.4,1505.2,318.5,-0.8,1.8,2471.087,13.29,0.029,135.0
2022-10-10T05:37:03,42.805,6.029,0.04,-0.036,-0.018,99.0,100.0,101.0,13.4,1505.2,329.0,-0.7,1.8,2471.05,13.29,0.053,132.0
2022-10-10T05:40:03,42.805,6.029,0.001,-0.023,0.022,101.0,102.0,100.0,13.4,1505.2,319.8,-0.7,1.8,2471.1,13.29,0.023,177.5
2022-10-10T05:43:03,42.805,6.029,0.015,-0.037,-0.014,99.0,102.0,101.0,13.3,1505.2,334.3,-0.7,1.8,2471.037,13.29,0.039,157.9
2022-10-10T05:46:03,42.805,6.029,0.016,-0.004,-0.004,99.0,101.0,101.0,13.4,1505.2,322.4,-0.8,1.8,2471.071,13.29,0.016,104.0
2022-10-10T05:49:03,42.805,6.029,0.01,-0.016,0.014,101.0,103.0,101.0,13.3,1505.2,329.6,-0.7,1.8,2471.096,13.29,0.018,148.0
2022-10-10T05:52:03,42.805,6.029,0.03,-0.005,0.013,102.0,101.0,99.0,13.4,1505.2,329.3,-0.8,1.8,2471.087,13.29,0.03,99.5
2022-10-10T05:55:03,42.805,6.029,0.018,-0.036,-0.004,99.0,101.0,101.0,13.4,1505.2,330.8,-0.8,1.8,2471.1,13.29,0.04,153.4
2022-10-10T05:58:03,42.805,6.029,0.015,-0.006,0.0,101.0,100.0,100.0,13.4,1505.2,320.8,-0.8,1.8,2471.067,13.29,0.016,111.8
2022-10-10T06:04:03,42.805,6.029,0.015,-0.031,-0.034,101.0,100.0,99.0,13.3,1505.2,332.8,-0.7,1.8,2471.093,13.28,0.034,154.2
2022-10-10T06:07:03,42.805,6.029,0.002,-0.016,0.02,101.0,102.0,99.0,13.4,1505.2,317.9,-0.7,1.8,2471.147,13.28,0.016,172.9
2022-10-10T06:10:03,42.805,6.029,-0.018,-0.026,0.016,100.0,103.0,99.0,13.3,1505.2,328.0,-0.7,1.8,2471.099,13.28,0.031,214.7
2022-10-10T06:13:03,42.805,6.029,0.01,-0.019,-0.027,101.0,100.0,100.0,13.3,1505.2,331.2,-0.8,1.8,2471.105,13.28,0.021,152.2
2022-10-10T06:16:03,42.805,6.029,0.02,-0.032,0.0,101.0,101.0,100.0,13.3,1505.2,327.0,-0.8,1.8,2471.127,13.29,0.037,148.0
2022-10-10T06:19:03,42.805,6.029,0.014,-0.015,-0.011,102.0,101.0,100.0,13.4,1505.2,318.4,-0.8,1.8,2471.135,13.29,0.02,137.0
2022-10-10T06:22:03,42.805,6.029,0.009,-0.014,-0.018,101.0,102.0,100.0,13.4,1505.2,325.7,-0.8,1.8,2471.125,13.29,0.016,147.3
2022-10-10T06:25:03,42.805,6.029,0.021,-0.011,0.013,101.0,103.0,101.0,13.4,1505.2,318.7,-0.8,1.8,2471.095,13.29,0.023,117.6
2022-10-10T06:28:03,42.805,6.029,0.02,-0.011,-0.021,101.0,101.0,100.0,13.4,1505.2,321.6,-0.7,1.9,2471.125,13.29,0.022,118.8
2022-10-10T06:31:03,42.805,6.029,0.029,-0.003,0.033,100.0,101.0,100.0,13.4,1505.2,320.9,-0.8,1.8,2471.08,13.29,0.029,95.9
2022-10-10T06:34:03,42.805,6.029,0.007,-0.03,-0.025,102.0,101.0,100.0,13.4,1505.2,319.6,-0.8,1.8,2471.099,13.29,0.03,166.9
2022-10-10T06:37:03,42.805,6.029,0.004,-0.026,0.009,99.0,102.0,100.0,13.4,1505.2,323.9,-0.8,1.8,2471.11,13.29,0.026,171.3
2022-10-10T06:40:03,42.805,6.029,0.003,-0.038,-0.008,100.0,102.0,100.0,13.4,1505.2,327.3,-0.8,1.8,2471.103,13.29,0.038,175.5
2022-10-10T06:43:03,42.805,6.029,0.019,-0.029,0.013,101.0,101.0,99.0,13.3,1505.2,323.0,-0.8,1.8,2471.115,13.29,0.034,146.8
2022-10-10T06:46:03,42.805,6.029,0.007,-0.006,0.035,101.0,101.0,99.0,13.4,1505.2,328.0,-0.8,1.8,2471.16,13.29,0.009,130.6
2022-10-10T06:49:03,42.805,6.029,0.003,-0.032,-0.046,101.0,101.0,100.0,13.4,1505.2,325.1,-0.7,1.8,2471.113,13.29,0.032,174.6
2022-10-10T06:52:03,42.805,6.029,0.005,-0.013,0.014,100.0,103.0,100.0,13.4,1505.2,316.2,-0.7,1.8,2471.075,13.29,0.013,159.0
2022-10-10T06:55:03,42.805,6.029,0.0,-0.006,0.011,100.0,101.0,100.0,13.4,1505.2,331.5,-0.7,1.8,2471.106,13.29,0.006,180.0
2022-10-10T06:58:03,42.805,6.029,-0.01,0.003,-0.001,100.0,102.0,100.0,13.4,1505.2,329.9,-0.8,1.8,2471.125,13.29,0.01,286.7
2022-10-10T07:04:03,42.805,6.029,0.0,-0.022,-0.012,100.0,102.0,99.0,13.4,1505.2,333.4,-0.8,1.8,2471.179,13.28,0.022,180.0
2022-10-10T07:07:03,42.805,6.029,0.011,-0.041,-0.027,101.0,102.0,100.0,13.3,1505.2,324.8,-0.8,1.8,2471.175,13.28,0.042,165.0
2022-10-10T07:10:03,42.805,6.029,0.023,-0.021,-0.012,101.0,101.0,100.0,13.3,1505.2,332.5,-0.8,1.8,2471.138,13.28,0.031,132.4
2022-10-10T07:13:03,42.805,6.029,0.015,-0.016,0.011,101.0,101.0,100.0,13.3,1505.2,334.3,-0.8,1.8,2471.154,13.29,0.021,136.9
2022-10-10T07:16:03,42.805,6.029,0.013,-0.024,0.013,101.0,101.0,102.0,13.4,1505.2,329.5,-0.8,1.8,2471.138,13.29,0.027,151.6
2022-10-10T07:19:03,42.805,6.029,-0.026,-0.001,0.006,101.0,101.0,100.0,13.4,1505.2,329.8,-0.8,1.8,2471.135,13.29,0.026,267.8
2022-10-10T07:22:03,42.805,6.029,0.007,-0.03,-0.017,100.0,102.0,99.0,13.4,1505.2,325.1,-0.8,1.8,2471.156,13.29,0.03,166.9
2022-10-10T07:25:03,42.805,6.029,0.006,0.003,0.026,102.0,100.0,99.0,13.4,1505.2,319.0,-0.7,1.8,2471.102,13.29,0.006,63.4
2022-10-10T07:28:03,42.805,6.029,-0.008,-0.021,-0.005,101.0,101.0,100.0,13.3,1505.2,332.4,-0.8,1.8,2471.165,13.29,0.022,200.9
2022-10-10T07:31:03,42.805,6.029,0.0,-0.018,0.019,100.0,103.0,100.0,13.4,1505.2,326.1,-0.8,1.9,2471.121,13.29,0.018,180.0
2022-10-10T07:34:03,42.805,6.029,-0.016,-0.013,-0.038,101.0,102.0,100.0,13.3,1505.2,331.6,-0.8,1.8,2471.138,13.29,0.02,230.9
2022-10-10T07:37:03,42.805,6.029,0.017,-0.023,-0.001,100.0,102.0,100.0,13.4,1505.2,329.9,-0.7,1.8,2471.144,13.29,0.028,143.5
2022-10-10T07:40:03,42.805,6.029,0.041,-0.027,0.02,101.0,101.0,101.0,13.4,1505.2,327.2,-0.8,1.8,2471.107,13.29,0.049,123.4
2022-10-10T07:43:03,42.805,6.029,0.015,-0.009,0.018,101.0,100.0,100.0,13.4,1505.2,326.5,-0.8,1.8,2471.115,13.29,0.017,121.0
2022-10-10T07:46:03,42.805,6.029,-0.017,-0.022,-0.017,100.0,103.0,100.0,13.4,1505.2,328.3,-0.7,1.8,2471.118,13.29,0.027,217.7
2022-10-10T07:49:03,42.805,6.029,-0.01,-0.009,-0.02,101.0,102.0,98.0,13.4,1505.2,317.0,-0.8,1.8,2471.115,13.29,0.013,228.0
2022-10-10T07:52:03,42.805,6.029,0.012,-0.03,-0.005,100.0,101.0,100.0,13.3,1505.2,331.8,-0.8,1.8,2471.142,13.29,0.032,158.2
2022-10-10T07:55:03,42.805,6.029,0.016,-0.003,0.019,102.0,101.0,100.0,13.4,1505.2,323.3,-0.8,1.8,2471.093,13.29,0.016,100.6
2022-10-10T07:58:03,42.805,6.029,0.014,-0.022,-0.009,100.0,101.0,100.0,13.4,1505.2,317.8,-0.7,1.8,2471.109,13.29,0.026,147.5
2022-10-10T08:04:03,42.805,6.029,0.006,-0.032,0.017,100.0,101.0,99.0,13.3,1505.2,323.2,-0.8,1.9,2471.154,13.28,0.032,169.4
2022-10-10T08:07:03,42.805,6.029,0.027,-0.014,0.031,100.0,100.0,100.0,13.3,1505.2,321.6,-0.8,1.8,2471.124,13.28,0.03,117.4
2022-10-10T08:10:03,42.805,6.029,0.013,-0.034,-0.01,101.0,101.0,100.0,13.4,1505.2,322.3,-0.8,1.8,2471.152,13.28,0.036,159.1
2022-10-10T08:13:03,42.805,6.029,0.011,-0.043,-0.037,100.0,101.0,100.0,13.3,1505.2,329.4,-0.7,1.8,2471.137,13.28,0.044,165.7
2022-10-10T08:16:03,42.805,6.029,0.005,-0.032,-0.014,100.0,101.0,100.0,13.4,1505.2,319.8,-0.7,1.8,2471.119,13.29,0.032,171.1
2022-10-10T08:19:03,42.805,6.029,0.002,-0.024,-0.017,100.0,101.0,100.0,13.4,1505.2,331.6,-0.7,1.8,2471.146,13.29,0.024,175.2
2022-10-10T08:22:03,42.805,6.029,0.01,-0.016,-0.011,100.0,101.0,100.0,13.4,1505.2,321.6,-0.7,1.8,2471.117,13.29,0.018,148.0
2022-10-10T08:25:03,42.805,6.029,0.0,-0.023,-0.021,101.0,103.0,99.0,13.3,1505.2,326.5,-0.8,1.8,2471.134,13.29,0.023,180.0
2022-10-10T08:28:03,42.805,6.029,0.001,-0.027,-0.032,101.0,101.0,100.0,13.4,1505.2,332.5,-0.8,1.8,2471.099,13.29,0.027,177.9
2022-10-10T08:31:03,42.805,6.029,0.052,-0.02,0.041,100.0,102.0,99.0,13.4,1505.2,320.7,-0.8,1.8,2471.063,13.29,0.055,111.0
2022-10-10T08:34:03,42.805,6.029,-0.012,-0.021,-0.018,100.0,100.0,101.0,13.3,1505.2,327.8,-0.8,1.8,2471.097,13.29,0.024,209.7
2022-10-10T08:37:03,42.805,6.029,0.014,-0.017,-0.007,102.0,101.0,99.0,13.4,1505.2,328.2,-0.7,1.8,2471.125,13.29,0.022,140.5
2022-10-10T08:40:03,42.805,6.029,0.0,-0.016,0.018,100.0,101.0,100.0,13.4,1505.2,332.8,-0.8,1.8,2471.101,13.29,0.016,180.0
2022-10-10T08:43:03,42.805,6.029,-0.004,-0.026,-0.034,102.0,100.0,99.0,13.4,1505.2,329.9,-0.7,1.8,2471.069,13.29,0.026,188.7
2022-10-10T08:46:03,42.805,6.029,0.019,-0.032,-0.001,101.0,100.0,101.0,13.3,1505.2,331.1,-0.8,1.8,2471.097,13.29,0.037,149.3
2022-10-10T08:49:03,42.805,6.029,-0.003,-0.028,-0.034,101.0,101.0,100.0,13.4,1505.2,324.2,-0.7,1.8,2471.096,13.29,0.028,186.1
2022-10-10T08:52:03,42.805,6.029,0.017,-0.014,0.0,101.0,102.0,100.0,13.3,1505.2,323.8,-0.8,1.8,2471.086,13.29,0.022,129.5
2022-10-10T08:55:03,42.805,6.029,-0.007,0.005,-0.011,99.0,102.0,100.0,13.4,1505.2,329.7,-0.7,1.8,2471.107,13.29,0.008,305.5
2022-10-10T08:58:03,42.805,6.029,0.016,-0.046,-0.061,101.0,100.0,100.0,13.3,1505.2,321.9,-0.7,1.8,2471.132,13.29,0.048,160.8
2022-10-10T09:04:03,42.805,6.029,0.012,-0.024,-0.001,100.0,102.0,99.0,13.4,1505.2,330.5,-0.8,1.8,2471.129,13.28,0.026,153.4
2022-10-10T09:07:03,42.805,6.029,0.003,-0.033,-0.026,101.0,101.0,101.0,13.4,1505.2,328.0,-0.8,1.8,2471.127,13.28,0.033,174.8
2022-10-10T09:10:03,42.805,6.029,0.009,-0.035,-0.039,101.0,101.0,99.0,13.4,1505.2,322.5,-0.8,1.8,2471.11,13.28,0.036,165.6
2022-10-10T09:13:03,42.805,6.029,0.01,-0.031,-0.027,100.0,101.0,101.0,13.4,1505.2,331.0,-0.8,1.8,2471.126,13.28,0.032,162.1
2022-10-10T09:16:03,42.805,6.029,0.008,-0.007,-0.021,100.0,102.0,100.0,13.3,1505.2,319.6,-0.8,1.8,2471.102,13.28,0.01,131.2
2022-10-10T09:19:03,42.805,6.029,0.015,-0.034,-0.04,101.0,101.0,100.0,13.4,1505.2,329.8,-0.8,1.8,2471.088,13.28,0.037,156.2
2022-10-10T09:22:03,42.805,6.029,0.007,-0.032,-0.022,101.0,100.0,100.0,13.4,1505.2,319.2,-0.8,1.8,2471.083,13.29,0.032,167.7
2022-10-10T09:25:03,42.805,6.029,0.01,-0.027,0.011,100.0,101.0,100.0,13.4,1505.2,333.7,-0.8,1.8,2471.099,13.29,0.028,159.7
2022-10-10T09:28:03,42.805,6.029,0.031,-0.041,-0.032,101.0,101.0,99.0,13.4,1505.2,327.1,-0.8,1.8,2471.083,13.29,0.051,142.9
2022-10-10T09:31:03,42.805,6.029,0.015,-0.033,-0.006,101.0,101.0,100.0,13.3,1505.2,331.0,-0.8,1.8,2471.106,13.29,0.036,155.6
2022-10-10T09:34:03,42.805,6.029,0.002,-0.047,-0.031,102.0,101.0,100.0,13.3,1505.2,321.9,-0.8,1.8,2471.032,13.29,0.047,177.6
2022-10-10T09:37:03,42.805,6.029,-0.006,-0.012,-0.002,100.0,101.0,100.0,13.4,1505.2,321.0,-0.7,1.8,2471.053,13.29,0.013,206.6
2022-10-10T09:40:03,42.805,6.029,0.029,-0.056,-0.009,101.0,100.0,100.0,13.3,1505.2,327.6,-0.8,1.8,2471.062,13.29,0.063,152.6
2022-10-10T09:43:03,42.805,6.029,0.023,-0.038,-0.012,101.0,101.0,99.0,13.4,1505.2,323.2,-0.8,1.8,2471.05,13.29,0.044,148.8
2022-10-10T09:46:03,42.805,6.029,0.033,-0.039,-0.017,100.0,101.0,100.0,13.3,1505.2,318.3,-0.7,1.8,2471.051,13.29,0.051,139.8
2022-10-10T09:49:03,42.805,6.029,0.016,-0.024,0.003,101.0,102.0,99.0,13.4,1505.2,325.1,-0.7,1.9,2471.061,13.29,0.028,146.3
2022-10-10T09:52:03,42.805,6.029,0.004,-0.026,0.006,101.0,102.0,100.0,13.4,1505.2,331.9,-0.8,1.8,2471.044,13.29,0.026,171.3
2022-10-10T09:55:03,42.805,6.029,0.029,-0.034,0.0,103.0,101.0,99.0,13.3,1505.2,317.4,-0.7,1.8,2471.032,13.29,0.044,139.5
2022-10-10T09:58:03,42.805,6.029,-0.005,-0.033,-0.004,99.0,101.0,101.0,13.3,1505.2,334.0,-0.7,1.8,2471.069,13.29,0.033,188.6